Orbital Elements at Epoch 2459200.5 (2020-Dec-17.0) TDB
Reference: JPL 14 (heliocentric ecliptic J2000)
Element | Value | Uncertainty (1-sigma) | Units |
e | .02860184458419207 | 5.3207e-08 | |
a | 2.547904354664788 | 1.4832e-08 | au |
q | 2.475029590297279 | 1.3869e-07 | au |
i | 2.496016542119167 | 5.4637e-06 | deg |
node | 351.1332923567054 | 0.00011269 | deg |
peri | 118.749007256407 | 0.00014377 | deg |
M | 352.117464055784 | 8.8154e-05 | deg |
tp | 2459233.026442613483 (2021-Jan-18.52644261) | 0.00036376 | TDB |
period | 1485.501547182428 4.07 | 1.2971e-05 3.551e-08 | d yr |
n | .2423423931687027 | 2.1161e-09 | deg/d |
Q | 2.620779119032296 | 1.5256e-08 | au |
|
| | Orbit Determination Parameters
Additional Information
|